Regional Weather Roundup
Issued by NWS Sioux Falls, SD

Home | Current Version | Previous Version | Graphics & Text | Print | Product List | Glossary Off
Versions: 1 2 3 4 5 6 7 8 9 10 11 12 13 14 15 16 17 18 19 20 21 22 23 24 25 26 27 28 29 30 31 32 33 34 35 36 37 38 39 40 41 42 43 44 45 46 47 48 49 50

272
ASUS43 KFSD 291810
RWRFSD

WEATHER ROUNDUP FOR SE SOUTH DAKOTA/SW MINNESOTA/NW IOWA
NATIONAL WEATHER SERVICE SIOUX FALLS SD
100 PM CDT SUN MAY 29 2016

NOTE: "FAIR" INDICATES FEW OR NO CLOUDS BELOW 12,000 FEET WITH NO
SIGNIFICANT WEATHER AND OR OBSTRUCTIONS TO VISIBILITY.


SDZ038>040-050-052>070-291900-
SOUTHEAST SOUTH DAKOTA

CITY           SKY/WX    TMP DP  RH WIND       PRES   REMARKS
BROOKINGS      SUNNY     72  53  51 NW16      30.04S
CHAMBERLAIN    SUNNY     75  56  52 NE3       30.07S
6HR MIN TEMP:  56; 6HR MAX TEMP:  75;

HURON          SUNNY     75  54  47 NW8       30.04F
6HR MIN TEMP:  56; 6HR MAX TEMP:  75;

MADISON        FAIR      72  57  60 NW13G18   30.07S
MITCHELL       SUNNY     75  52  44 N3        30.06F
6HR MIN TEMP:  59; 6HR MAX TEMP:  76;

SIOUX FALLS    MOSUNNY   74  56  53 NW12G21   30.06S
6HR MIN TEMP:  59; 6HR MAX TEMP:  75;

WINNER         FAIR      76  55  48 S7        30.08S
YANKTON        SUNNY     73  61  64 NW8       30.06F
$$

MNZ071-072-080-081-089-090-097-098-291900-
SOUTHWEST MINNESOTA

CITY           SKY/WX    TMP DP  RH WIND       PRES   REMARKS
FAIRMONT       MOSUNNY   75  55  50 W14G21    30.02S
JACKSON        MOSUNNY   73  54  49 W15G21    30.04F
LUVERNE        MOSUNNY   73  55  53 W15       30.06S
MARSHALL       MOSUNNY   74  57  55 W16G23    30.01S
6HR MIN TEMP:  61; 6HR MAX TEMP:  74;

MONTEVIDEO     MOSUNNY   77  57  50 N10       30.01S
PIPESTONE      SUNNY     73  55  53 NW10G16   30.06R
REDWOOD FALLS  PTSUNNY   75  58  55 W13       29.99S
TRACY          MOSUNNY   74  59  58 W10G18    30.03S
WINDOM         CLOUDY    75  55  50 CALM      30.03S
WORTHINGTON    MOSUNNY   73  59  61 W20       30.05S
$$

IAZ001>003-012>014-020>022-031-032-NEZ013-014-SDZ071-291900-
NORTHWEST IOWA

CITY           SKY/WX    TMP DP  RH WIND       PRES   REMARKS
CHEROKEE       SUNNY     75  61  60 W13G18    30.07S
DENISON        SUNNY     77  55  47 W9        30.06F
ESTHERVILLE    TSTM      67  59  75 W9G35     30.04S
LE MARS        MOSUNNY   77  61  57 W10       30.07S
ORANGE CITY    SUNNY     75  63  64 W12       30.06F
SHELDON        MOSUNNY   75  63  64 W13       30.05S
SIOUX CITY     SUNNY     79  59  50 W16G22    30.07S
6HR MIN TEMP:  57; 6HR MAX TEMP:  79;

SPENCER        MOSUNNY   76  60  57 W17       30.05F
6HR MIN TEMP:  59; 6HR MAX TEMP:  76;

STORM LAKE     SUNNY     75  55  50 W13G20    30.08S
$$

ABBREVIATIONS USED IN REMARKS
   TC - TEMPERATURE IN CELSIUS
  WCI - WIND CHILL INDEX
   HX - HEAT INDEX
  VSB - VISIBILITY





USA.gov is the U.S. government's official web portal to all federal, state and local government web resources and services.